Location: El Jarillo
(10.3667°N, 67.1667°W)
Time: 14:38:12
(UTC+00:00)

Cosmos 1844 Rocket - Pass Details

Date: 08 September 2024
Orbit: 822 x 845 km, 71.0° (Epoch: 10 October)

Event Time Altitude Azimuth Distance (km) Brightness Sun altitude
Rises 22:59:42 0° 6° (N) 3,393 5.9 -7.3°
Reaches altitude 10° 23:02:39 10° 20° (NNE) 2,458 5.0 -8.0°
Maximum altitude 23:07:02 23° 72° (ENE) 1,714 3.8 -9.1°
Drops below altitude 10° 23:11:24 10° 123° (ESE) 2,454 4.6 -10.2°
Enters shadow 23:11:39 - 124° (SE) 2,529 4.6 -10.2°
